CAPE
0 0 0 0 0 0 0 0 0 0 0 0 0 0 0 0 0 0 0 0 0 0 0 0 0 0 1 1 1 1 1 1
0 0 0 0 0 0 0 0 0 0 0 0 0 0 0 0 0 0 0 0 0 0 0 0 0 1 1 1 1 1 2 1
0 0 0 0 0 0 0 0 0 0 0 0 0 0 0 0 0 0 0 0 0 0 0 0 0 0 0 0 0 2 1 0
0 0 0 0 0 0 0 0 0 0 0 0 0 0 0 0 0 0 0 0 0 0 0 0 0 1 1 0 1 0 4 1
0 0 0 0 0 0 0 0 0 0 0 0 0 0 0 0 0 0 0 0 0 0 0 0 1 1 1 1 0 1 0 2
0 0 0 0 0 0 0 0 0 0 0 0 0 0 0 0 0 0 0 0 0 0 0 0 0 0 0 0 0 0 1 0
0 0 0 0 0 0 0 0 0 0 0 0 0 0 0 0 0 0 0 0 0 0 0 0 0 0 0 0 0 0 1 1
0 0 0 0 0 0 0 0 0 0 0 0 0 0 0 0 0 0 0 0 0 0 0 0 0 0 0 0 0 0 0 2
0 0 0 0 0 0 0 0 0 0 0 0 0 0 0 0 0 0 0 0 0 0 0 0 0 0 0 0 0 0 0 1
0 0 0 0 0 0 0 0 0 0 0 0 0 0 0 0 0 0 0 0 0 0 0 0 0 0 0 0 0 0 1 0
0 0 0 0 0 0 0 0 0 0 0 0 0 0 0 0 0 0 0 0 0 0 0 0 0 0 0 0 0 0 1 0
0 0 0 0 0 0 0 0 0 0 0 0 0 0 0 0 0 0 0 0 0 0 0 0 0 0 0 0 0 0 0 1
0 0 0 0 0 0 0 0 0 0 0 0 0 0 0 0 0 0 0 0 0 0 0 0 0 0 0 0 0 0 0 0
0 0 0 0 0 0 0 0 0 0 0 0 0 0 0 0 0 0 0 0 0 0 0 0 0 0 0 0 0 0 0 0
0 0 0 0 0 0 0 0 0 0 0 0 0 0 0 0 0 0 0 0 0 0 0 0 0 0 0 0 0 0 0 0
0 0 0 0 0 0 0 0 0 0 0 0 0 0 0 0 0 0 0 0 0 0 0 0 0 0 0 0 0 0 0 0
0 0 0 0 0 0 0 0 0 0 0 0 0 0 0 0 0 0 0 0 0 0 0 0 0 0 0 0 0 0 0 0
0 0 0 0 0 0 0 0 0 0 0 0 0 0 0 0 0 0 0 0 0 0 0 0 0 0 0 0 0 0 0 0
0 0 0 0 0 0 0 0 0 0 0 0 0 0 0 0 0 0 0 0 0 0 0 0 0 0 0 0 0 0 0 0
CIN
-0 -0 -0 -0 -0 -0 -0 -0 -0 -0 -0 -0 -0 -0 -0 -0 -0 -0 -0 -0 -0 -0 -0 -0 -0 -0 -0 -0 -0 -0 -0 -0
-0 -0 -0 -0 -0 -0 -0 -0 -0 -0 -0 -0 -0 -0 -0 -0 -0 -0 -0 -0 -0 -0 -0 -0 -0 -0 -0 -0 -0 -0 -0 -0
-0 -0 -0 -0 -0 -0 -0 -0 -0 -0 -0 -0 -0 -0 -0 -0 -0 -0 -0 -0 -0 -0 -0 -0 -0 -0 -0 -0 -0 -0 -0 -0
-0 -0 -0 -0 -0 -0 -0 -0 -0 -0 -0 -0 -0 -0 -0 -0 -0 -0 -0 -0 -0 -0 -0 -0 -0 -0 -0 -0 -0 -0 -0 -0
-0 -0 -0 -0 -0 -0 -0 -0 -0 -0 -0 -0 -0 -0 -0 -0 -0 -0 -0 -0 -0 -0 -0 -0 -0 -0 -0 -0 -0 -0 -0 -0
-0 -0 -0 -0 -0 -0 -0 -0 -0 -0 -0 -0 -0 -0 -0 -0 -0 -0 -0 -0 -0 -0 -0 -0 -0 -0 -0 -0 -0 -0 -0 -0
-0 -0 -0 -0 -0 -0 -0 -0 -0 -0 -0 -0 -0 -0 -0 -0 -0 -0 -0 -0 -0 -0 -0 -0 -0 -0 -0 -0 -0 -0 -0 -0
-0 -0 -0 -0 -0 -0 -0 -0 -0 -0 -0 -0 -0 -0 -0 -0 -0 -0 -0 -0 -0 -0 -0 -0 -0 -0 -0 -0 -0 -0 -0 -0
-0 -0 -0 -0 -0 -0 -0 -0 -0 -0 -0 -0 -0 -0 -0 -0 -0 -0 -0 -0 -0 -0 -0 -0 -0 -0 -0 -0 -0 -0 -0 -0
-0 -0 -0 -0 -0 -0 -0 -0 -0 -0 -0 -0 -0 -0 -0 -0 -0 -0 -0 -0 -0 -0 -0 -0 -0 -0 -0 -0 -0 -0 -0 -0
-0 -0 -0 -0 -0 -0 -0 -0 -0 -0 -0 -0 -0 -0 -0 -0 -0 -0 -0 -0 -0 -0 -0 -0 -0 -0 -0 -0 -0 -0 -0 -0
-0 -0 -0 -0 -0 -0 -0 -0 -0 -0 -0 -0 -0 -0 -0 -0 -0 -0 -0 -0 -0 -0 -0 -0 -0 -0 -0 -0 -0 -0 -0 -0
-0 -0 -0 -0 -0 -0 -0 -0 -0 -0 -0 -0 -0 -0 -0 -0 -0 -0 -0 -0 -0 -0 -0 -0 -0 -0 -0 -0 -0 -0 -0 -0
-0 -0 -0 -0 -0 -0 -0 -0 -0 -0 -0 -0 -0 -0 -0 -0 -0 -0 -0 -0 -0 -0 -0 -0 -0 -0 -0 -0 -0 -0 -0 -0
-0 -0 -0 -0 -0 -0 -0 -0 -0 -0 -0 -0 -0 -0 -0 -0 -0 -0 -0 -0 -0 -0 -0 -0 -0 -0 -0 -0 -0 -0 -0 -0
-0 -0 -0 -0 -0 -0 -0 -0 -0 -0 -0 -0 -0 -0 -0 -0 -0 -0 -0 -0 -0 -0 -0 -0 -0 -0 -0 -0 -0 -0 -0 -0
-0 -0 -0 -0 -0 -0 -0 -0 -0 -0 -0 -0 -0 -0 -0 -0 -0 -0 -0 -0 -0 -0 -0 -0 -0 -0 -0 -0 -0 -0 -0 -0
-0 -0 -0 -0 -0 -0 -0 -0 -0 -0 -0 -0 -0 -0 -0 -0 -0 -0 -0 -0 -0 -0 -0 -0 -0 -0 -0 -0 -0 -0 -0 -0
-0 -0 -0 -0 -0 -0 -0 -0 -0 -0 -0 -0 -0 -0 -0 -0 -0 -0 -0 -0 -0 -0 -0 -0 -0 -0 -0 -0 -0 -0 -0 -0
Wind_Speed
7 7 9 11 13 16 18 19 19 19 19 21 22 23 25 26 28 29 30 32 33 35 35 36 37 38 39 40 41 41 42 43
8 8 9 11 14 16 18 19 20 18 20 21 22 23 24 26 27 29 31 32 33 34 35 36 37 37 39 40 40 42 41 42
11 10 12 14 13 15 17 19 20 20 20 19 21 22 24 25 26 29 31 32 33 33 34 36 36 37 39 40 41 40 39 40
14 12 12 11 12 13 15 17 18 19 18 18 19 21 22 25 27 28 29 30 32 33 34 34 35 35 37 39 40 40 40 38
14 13 11 11 12 13 14 15 18 18 19 19 20 21 22 24 25 26 27 29 30 31 32 33 33 34 36 37 38 38 38 39
12 12 10 10 11 12 14 16 17 18 19 18 19 21 21 22 24 26 28 29 30 31 32 32 32 33 34 36 37 38 37 36
10 9 8 9 8 11 14 16 17 18 18 19 19 19 20 22 25 26 27 28 29 31 31 31 31 32 33 34 35 36 38 37
5 4 5 6 8 11 14 15 17 16 16 17 18 20 21 23 24 25 27 28 29 31 30 31 31 31 31 32 33 34 37 38
2 3 4 5 8 11 13 15 15 14 15 16 18 20 21 23 24 25 25 26 28 29 29 29 30 30 31 31 32 33 35 36
6 6 6 6 8 9 11 12 13 13 13 15 18 20 22 23 23 23 24 25 25 28 28 29 29 29 30 30 31 32 33 35
6 5 6 7 8 8 8 10 10 11 13 15 17 19 21 21 21 22 23 24 25 27 28 28 29 29 29 30 31 32 32 34
8 9 7 6 5 6 7 10 10 10 11 14 16 17 19 20 21 21 22 23 25 26 27 27 28 29 29 30 30 31 32 33
10 8 6 6 7 8 9 10 9 9 11 13 14 14 16 19 20 20 22 23 23 25 26 26 27 28 29 29 30 31 31 32
11 10 10 9 8 8 8 9 8 8 10 11 12 12 15 17 19 20 21 22 23 23 24 26 27 28 28 29 29 30 30 31
16 15 12 10 9 7 6 6 5 6 8 10 10 10 12 14 17 19 20 21 23 24 24 24 25 26 28 28 29 30 30 31
15 14 12 9 7 6 6 4 3 4 7 8 10 11 12 14 16 18 19 20 21 22 24 24 24 25 26 28 29 30 30 31
11 7 7 8 6 5 3 3 3 4 5 6 8 10 12 14 15 17 19 20 21 22 23 23 24 25 26 27 27 28 30 31
4 4 7 7 6 4 3 1 2 3 5 6 8 10 12 13 14 16 17 19 20 21 22 23 23 24 25 26 27 28 29 30
3 1 2 4 4 3 2 1 5 5 6 7 8 10 11 12 14 15 16 17 18 20 21 22 22 23 25 25 26 27 28 28
Wind_Direction
288 301 314 324 330 333 334 335 338 341 343 345 347 348 348 350 347 346 347 346 345 342 340 338 335 332 329 325 320 316 311 306
287 299 313 324 329 332 334 336 338 338 338 341 345 345 347 348 349 348 348 347 345 346 345 344 342 340 336 331 326 321 317 313
286 294 307 316 326 335 338 338 339 341 344 344 343 345 349 349 349 349 349 350 350 348 347 346 345 343 341 338 334 329 324 321
278 284 299 314 324 332 337 338 344 348 348 349 348 348 347 347 348 350 352 354 353 352 351 351 351 350 346 343 340 334 327 325
277 280 290 302 314 326 335 344 347 348 349 348 348 347 346 349 351 355 355 356 355 355 354 354 354 354 354 352 350 345 339 326
274 280 292 304 313 325 337 342 348 349 346 348 350 352 355 357 357 354 353 352 352 351 350 352 352 351 351 352 352 352 349 342
287 292 297 309 326 335 335 340 343 345 346 351 356 358 359 358 356 353 353 354 353 353 352 352 356 354 352 353 354 356 355 352
274 276 289 310 321 332 335 337 341 350 360 4 5 2 0 358 355 354 353 355 353 353 355 357 358 356 354 356 357 357 357 358
210 256 296 315 319 323 328 341 354 359 1 4 5 5 1 358 357 357 357 356 357 358 360 2 1 358 357 357 359 359 359 360
303 306 306 314 313 328 338 345 352 359 1 3 358 357 359 1 0 1 1 1 1 0 4 5 1 1 360 0 2 1 2 2
296 298 307 315 326 343 355 356 356 355 354 356 359 1 2 5 7 6 5 5 4 5 6 5 3 2 1 1 0 0 4 6
290 298 305 321 339 349 352 349 351 351 353 356 359 2 6 7 10 8 8 9 8 8 7 6 5 4 4 4 4 3 4 5
291 287 283 295 310 324 331 336 344 349 352 355 360 8 10 9 11 13 13 12 13 13 14 13 10 10 7 7 4 6 4 5
282 279 273 279 293 308 320 327 339 357 358 3 7 14 14 15 16 18 21 20 19 21 21 21 20 16 12 11 7 8 5 6
284 277 268 269 283 297 310 321 337 351 1 2 9 24 24 23 24 26 27 29 27 25 27 28 28 23 18 13 10 10 10 10
285 266 249 251 263 288 307 325 343 5 2 14 21 28 30 37 35 32 33 33 32 32 31 31 31 28 24 20 16 12 13 13
291 268 229 221 228 248 283 324 353 22 25 43 40 42 40 39 39 37 36 35 33 35 33 33 32 32 21 16 18 14 14 13
297 211 198 213 217 231 243 275 52 54 50 65 59 51 46 43 44 38 35 33 33 31 32 32 31 28 18 16 15 15 13 10
343 312 211 219 235 244 283 149 127 109 88 80 72 63 51 50 43 38 37 36 33 31 29 27 25 21 16 14 12 10 10 10